Printer-friendly version
Follow the MPC on Twitter Follow the MPC on Facebook Follow the MPC on Google+ The MPC blog See all the MPC RSS feeds

MPEC 2010-X60 : 2010 XE11

The following Minor Planet Electronic Circular may be linked-to from your own Web pages, but must not otherwise be redistributed electronically.

A form allowing access to any MPEC is at the bottom of this page.


Read MPEC 2010-X59 Read MPEC 2010-X61


M.P.E.C. 2010-X60                                Issued 2010 Dec. 6, 04:26 UT

     The Minor Planet Electronic Circulars contain information on unusual
         minor planets and routine data on comets.  They are published
   on behalf of Commission 20 of the International Astronomical Union by the
          Minor Planet Center, Smithsonian Astrophysical Observatory,
                          Cambridge, MA 02138, U.S.A.

             Prepared using the Tamkin Foundation Computer Network

                              MPC@CFA.HARVARD.EDU
       URL http://www.minorplanetcenter.org/iau/mpc.html  ISSN 1523-6714

                                   2010 XE11

Observations:
     K10X11E* C2010 12 04.35248 05 46 25.60 +14 08 31.0          16.8  cEX060704
     K10X11E  C2010 12 04.36545 05 46 27.77 +14 14 30.3          17.2  cEX060704
     K10X11E  C2010 12 04.37849 05 46 29.85 +14 20 31.5          16.7  cEX060704
     K10X11E  C2010 12 04.39149 05 46 32.13 +14 26 31.4          17.2  cEX060704
     K10X11E  C2010 12 04.40450 05 46 34.37 +14 32 30.5          17.0  cEX060704
     K10X11E KC2010 12 05.34436 05 50 35.30 +21 34 31.3          16.3 RuEX060H36
     K10X11E KC2010 12 05.34643 05 50 35.67 +21 35 25.5          16.1 RuEX060H36
     K10X11E KC2010 12 05.34850 05 50 36.03 +21 36 20.1          16.5 RuEX060H36
     K10X11E KC2010 12 05.35262 05 50 36.72 +21 38 06.4          17.0 RuEX060H36
     K10X11E  C2010 12 05.48935 05 51 28.56 +22 36 44.8          16.9 RoEX060300
     K10X11E  C2010 12 05.49042 05 51 28.78 +22 37 13.2          17.0 RoEX060300
     K10X11E  C2010 12 05.49148 05 51 29.03 +22 37 40.8          16.8 RoEX060300
     K10X11E  C2010 12 05.49254 05 51 29.25 +22 38 08.6          16.8 RoEX060300
     K10X11E  C2010 12 05.49360 05 51 29.48 +22 38 36.2          16.9 RoEX060300
     K10X11E  C2010 12 05.81145 05 52 47.82 +24 51 34.1          15.5 RoEX060J16
     K10X11E  C2010 12 05.81507 05 52 48.75 +24 53 06.1          16.0 RoEX060J16
     K10X11E  C2010 12 05.81876 05 52 49.74 +24 54 39.6          16.0 RoEX060J16
     K10X11E  C2010 12 05.82785 05 52 51.92 +24 58 30.7          15.8 RoEX060J16
     K10X11E  C2010 12 05.83145 05 52 52.82 +25 00 00.9          15.7 RoEX060J16
     K10X11E  C2010 12 05.83509 05 52 53.74 +25 01 33.0          15.9 RoEX060J16
     K10X11E KC2010 12 05.87543 05 53 04.90 +25 19 20.9          16.2 RwEX060213
     K10X11E KC2010 12 05.88183 05 53 06.25 +25 22 02.1          16.2 RwEX060213
     K10X11E KC2010 12 05.88813 05 53 07.52 +25 24 40.6          16.9 RwEX060213
     K10X11E KC2010 12 05.92068 05 53 13.09 +25 37 41.2                uEX060J95
     K10X11E KC2010 12 05.92778 05 53 14.54 +25 40 38.6                uEX060J95
     K10X11E KC2010 12 05.93289 05 53 15.58 +25 42 46.3          16.5 RuEX060J95
     K10X11E  C2010 12 05.95256 05 53 11.07 +25 51 36.0          16.2 RrEX060B18
     K10X11E  C2010 12 05.95448 05 53 11.41 +25 52 23.5          16.3 RrEX060B18
     K10X11E  C2010 12 05.95733 05 53 11.92 +25 53 33.4          16.1 RrEX060B18
     K10X11E  C2010 12 05.95971 05 53 12.33 +25 54 31.7          16.2 RrEX060B18
     K10X11E  C2010 12 06.10747 05 54 00.65 +26 59 09.8          16.4 RcEX060844
     K10X11E  C2010 12 06.10804 05 54 00.80 +26 59 24.1          16.3 RcEX060844
     K10X11E  C2010 12 06.10936 05 54 01.01 +26 59 56.3          16.2 RcEX060844
     K10X11E  C2010 12 06.11054 05 54 01.19 +27 00 25.6          16.5 RcEX060844
     K10X11E  C2010 12 06.11159 05 54 01.40 +27 00 51.7          16.7 RcEX060844
     K10X11E  C2010 12 06.11257 05 54 01.53 +27 01 15.5          16.2 RcEX060844
     K10X11E  C2010 12 06.11755 05 54 02.44 +27 03 16.0          16.3 RcEX060844
     K10X11E  C2010 12 06.11844 05 54 02.58 +27 03 39.3          16.4 RcEX060844

Observer details:
213 Observatorio Montcabre.  Observer R. Naves.  Measurer M. Campas.  0.30-m
    f/10 Schmidt-Cassegrain.
300 Bisei Spaceguard Center--BATTeRS.  Observers T. Sakamoto, N. Hashimoto.
    1.0-m f/3.0 reflector + CCD.
704 Lincoln Laboratory ETS, New Mexico.  Observers M. Blythe, G. Spitz,
    R. Brungard, J. Paige, P. Festler.  1.0-m f/2.15 reflector + CCD.
844 Los Molinos.  Observers R. Salvo, S. Roland, S. Bruzzone, G. Tancredi,
    M. Martinez.  Measurer R. Salvo.  0.35-m reflector + CCD.
B18 Terskol.  Observers M. Andreev, A. Sergeev, N. Parakhin, V. Kozlov.
    Measurer M. Andreev.  0.6-m f/12.8 Cassegrain + CCD.
H36 Sandlot Observatory, Scranton.  Observer G. Hug.  0.56-m reflector + CCD.
J16 An Carraig Observatory, Loughinisland.  Observer K. Rooney.  0.25-m f/10.0
    Schmidt-Cassegrain + CCD.
J95 Great Shefford.  Observer P. Birtwhistle.  0.40-m f/6.0 Schmidt-Cassegrain
    + CCD.

Orbital elements:
2010 XE11                                                Earth MOID = 0.0331 AU
Epoch 2011 Feb. 8.0 TT = JDT 2455600.5                  MPC
M  50.29043              (2000.0)            P               Q
n   0.60760557     Peri.  340.01271     +0.58237773     -0.78069170
a   1.3805587      Node    73.71290     +0.77425440     +0.44773836
e   0.2699887      Incl.   13.65617     +0.24772223     +0.43594820
P   1.62           H   23.0           G   0.15           U   6
Residuals in seconds of arc
101204 704  0.7-  0.1+    101205 300  0.3+  0.3-    101205 B18  0.2+  0.5-
101204 704  0.0   0.3-    101205 J16  0.8-  0.0     101205 B18  0.2+  0.2-
101204 704  1.0-  0.2-    101205 J16  0.5-  0.2+    101205 B18  0.3+  0.3-
101204 704  0.6+  0.2+    101205 J16  0.4+  0.1+    101205 B18  0.1+  0.4-
101204 704  1.1+  0.2+    101205 J16  0.6-  0.8+    101206 844  0.1-  0.2-
101205 H36  0.3-  0.4-    101205 J16  0.3-  0.2-    101206 844  0.5+  0.2+
101205 H36  0.0   0.1+    101205 J16  0.1+  0.2-    101206 844  0.2+  0.0
101205 H36  0.0   1.0+    101205 213  0.0   0.1+    101206 844  0.2-  0.3+
101205 H36  0.3-  0.5+    101205 213  0.2+  0.3-    101206 844  0.1+  0.7+
101205 300  0.2+  0.5-    101205 213  0.1-  0.6-    101206 844  0.4-  0.4+
101205 300  0.0   0.1-    101205 J95  0.0   0.2+    101206 844  0.0   1.1-
101205 300  0.3+  0.2-    101205 J95  0.0   0.0     101206 844  0.2-  0.4+
101205 300  0.2+  0.2-    101205 J95  0.1+  0.0

Ephemeris:
2010 XE11                a,e,i = 1.38, 0.27, 14                  q = 1.0078
Date    TT    R. A. (2000) Decl.     Delta      r     Elong.  Phase     V
2010 11 30    05 28.48   -18 42.9    0.0377   1.014   136.6    41.9    17.5
2010 12 10    06 10.51   +47 40.5    0.0482   1.028   152.1    26.7    17.7
2010 12 20    06 50.51   +68 41.9    0.0900   1.048   133.8    42.6    19.5
2010 12 30    07 17.96   +74 09.0    0.137    1.075   128.7    45.6    20.6
2011 01 09    07 30.53   +75 01.1    0.186    1.106   127.2    45.1    21.3
2011 01 19    07 36.62   +73 44.7    0.237    1.141   126.6    43.8    21.8
2011 01 29    07 42.69   +71 12.6    0.289    1.179   126.1    42.4    22.3
2011 02 08    07 51.32   +67 50.0    0.345    1.218   125.3    41.4    22.7
2011 02 18    08 03.00   +63 55.3    0.405    1.259   123.8    40.7    23.1

Carl W. Hergenrother         (C) Copyright 2010 MPC           M.P.E.C. 2010-X60

Read MPEC 2010-X59 Read MPEC 2010-X61


MPEC number:

Enter an MPEC number in one of the following forms:

  • 1997-B01 (the full form)
  • J97B01 (the packed version of the full form)
  • B01 (the abbreviated form)

Valid HTML 4.01!